| time (UTC) | temp C | wind direction | speed KPH | gust KPH | rain 1hr cm | rain 24hr cm | rain mn cm | humidity % | barometer mb |
| 20260506011503 | 8 | 59 | 3.2 | 8.0 | 0.00 | 0.00 | 0.00 | 76 | 1015.4 |
| 20260506010003 | 8 | 60 | 3.2 | 8.0 | 0.00 | 0.00 | 0.00 | 76 | 1015.5 |
| 20260506004503 | 8 | 66 | 1.6 | 4.8 | 0.00 | 0.00 | 0.00 | 75 | 1015.5 |
| 20260506003024 | 8 | 66 | 1.6 | 6.4 | 0.00 | 0.00 | 0.00 | 74 | 1015.6 |
| 20260506001503 | 8 | 70 | 4.8 | 11.3 | 0.00 | 0.00 | 0.00 | 73 | 1015.7 |
| 20260506000003 | 8 | 77 | 8.0 | 17.7 | 0.00 | 0.00 | 0.00 | 73 | 1015.6 |
| 20260505234524 | 8 | 62 | 9.7 | 17.7 | 0.00 | 0.00 | 0.00 | 74 | 1015.5 |
| 20260505233024 | 9 | 71 | 6.4 | 14.5 | 0.00 | 0.00 | 0.00 | 75 | 1015.5 |
| 20260505231503 | 9 | 55 | 6.4 | 12.9 | 0.00 | 0.00 | 0.00 | 75 | 1015.6 |
| 20260505230003 | 9 | 61 | 6.4 | 17.7 | 0.00 | 0.00 | 0.00 | 76 | 1015.5 |
| 20260505224503 | 9 | 60 | 8.0 | 17.7 | 0.00 | 0.00 | 0.00 | 76 | 1015.6 |
| 20260505223003 | 10 | 49 | 4.8 | 14.5 | 0.00 | 0.00 | 0.00 | 76 | 1015.5 |
| 20260505221524 | 10 | 52 | 6.4 | 17.7 | 0.00 | 0.00 | 0.00 | 77 | 1015.5 |
| 20260505220003 | 10 | 54 | 4.8 | 11.3 | 0.00 | 0.00 | 0.00 | 78 | 1015.6 |
| 20260505214503 | 10 | 59 | 6.4 | 16.1 | 0.00 | 0.00 | 0.00 | 78 | 1015.4 |
| 20260505213003 | 10 | 57 | 8.0 | 20.9 | 0.00 | 0.00 | 0.00 | 77 | 1015.3 |
| 20260505211503 | 10 | 52 | 8.0 | 19.3 | 0.00 | 0.00 | 0.00 | 77 | 1015.3 |
| 20260505210003 | 10 | 63 | 11.3 | 25.7 | 0.00 | 0.00 | 0.00 | 77 | 1015.1 |
| 20260505204503 | 10 | 59 | 11.3 | 25.7 | 0.00 | 0.00 | 0.00 | 77 | 1015.0 |
| 20260505203024 | 10 | 51 | 11.3 | 25.7 | 0.00 | 0.00 | 0.00 | 79 | 1014.9 |
| 20260505201524 | 10 | 321 | 6.4 | 16.1 | 0.00 | 0.00 | 0.00 | 78 | 1014.7 |
| 20260505200003 | 10 | 313 | 6.4 | 16.1 | 0.00 | 0.00 | 0.00 | 78 | 1014.8 |
| 20260505194503 | 11 | 306 | 8.0 | 14.5 | 0.00 | 0.00 | 0.00 | 77 | 1014.7 |
| 20260505193003 | 11 | 310 | 8.0 | 14.5 | 0.00 | 0.00 | 0.00 | 76 | 1014.5 |
| 20260505191503 | 11 | 313 | 8.0 | 14.5 | 0.00 | 0.00 | 0.00 | 76 | 1014.5 |
| 20260505190024 | 11 | 320 | 8.0 | 14.5 | 0.00 | 0.00 | 0.00 | 75 | 1014.4 |
| 20260505184503 | 11 | 320 | 8.0 | 19.3 | 0.00 | 0.00 | 0.00 | 74 | 1014.5 |
| 20260505183003 | 12 | 323 | 9.7 | 19.3 | 0.00 | 0.00 | 0.00 | 73 | 1014.3 |
| 20260505181524 | 12 | 331 | 9.7 | 19.3 | 0.00 | 0.00 | 0.00 | 71 | 1014.4 |
| 20260505180003 | 12 | 327 | 9.7 | 17.7 | 0.00 | 0.00 | 0.00 | 71 | 1014.4 |
| 20260505174503 | 12 | 320 | 8.0 | 17.7 | 0.00 | 0.00 | 0.00 | 72 | 1014.3 |
| 20260505173003 | 12 | 313 | 8.0 | 16.1 | 0.00 | 0.00 | 0.00 | 73 | 1014.3 |
| 20260505171503 | 12 | 309 | 8.0 | 19.3 | 0.00 | 0.00 | 0.00 | 73 | 1014.5 |
| 20260505170003 | 12 | 309 | 11.3 | 19.3 | 0.00 | 0.00 | 0.00 | 72 | 1014.4 |
| 20260505164524 | 12 | 323 | 6.4 | 16.1 | 0.00 | 0.00 | 0.00 | 74 | 1014.5 |
| 20260505163003 | 12 | 316 | 6.4 | 14.5 | 0.00 | 0.00 | 0.00 | 74 | 1014.6 |
| 20260505161524 | 12 | 332 | 6.4 | 16.1 | 0.00 | 0.00 | 0.00 | 73 | 1014.6 |
| 20260505153003 | 12 | 332 | 6.4 | 12.9 | 0.00 | 0.00 | 0.00 | 73 | 1014.6 |
| 20260505151503 | 12 | 331 | 8.0 | 14.5 | 0.00 | 0.00 | 0.00 | 72 | 1014.6 |
| 20260505124503 | 13 | 314 | 11.3 | 20.9 | 0.00 | 0.00 | 0.00 | 71 | 1014.7 |
| 20260505123024 | 12 | 321 | 9.7 | 20.9 | 0.00 | 0.00 | 0.00 | 73 | 1014.7 |
| 20260505121503 | 12 | 314 | 11.3 | 22.5 | 0.00 | 0.00 | 0.00 | 72 | 1014.8 |
| 20260505120004 | 11 | 327 | 14.5 | 25.7 | 0.00 | 0.00 | 0.00 | 71 | 1014.8 |
| 20260505114503 | 11 | 339 | 11.3 | 25.7 | 0.00 | 0.00 | 0.00 | 73 | 1014.9 |
| 20260505113003 | 12 | 320 | 11.3 | 25.7 | 0.00 | 0.00 | 0.00 | 71 | 1014.8 |
| 20260505111503 | 13 | 315 | 9.7 | 17.7 | 0.00 | 0.00 | 0.00 | 73 | 1014.9 |
| 20260505101524 | 11 | 350 | 11.3 | 24.1 | 0.00 | 0.00 | 0.00 | 75 | 1015.3 |
| 20260505100003 | 12 | 16 | 11.3 | 24.1 | 0.00 | 0.00 | 0.00 | 73 | 1015.0 |
| 20260505094524 | 12 | 9 | 11.3 | 20.9 | 0.00 | 0.00 | 0.00 | 71 | 1015.0 |
| 20260505093003 | 12 | 5 | 8.0 | 16.1 | 0.00 | 0.00 | 0.00 | 73 | 1015.1 |
| 20260505091524 | 11 | 336 | 8.0 | 16.1 | 0.00 | 0.00 | 0.00 | 74 | 1015.1 |
| 20260505090003 | 11 | 354 | 9.7 | 19.3 | 0.00 | 0.00 | 0.00 | 77 | 1015.2 |
| 20260505084524 | 11 | 353 | 11.3 | 17.7 | 0.00 | 0.00 | 0.00 | 79 | 1015.2 |
| 20260505083003 | 11 | 353 | 11.3 | 22.5 | 0.00 | 0.00 | 0.00 | 79 | 1015.2 |
| 20260505081524 | 11 | 359 | 9.7 | 20.9 | 0.00 | 0.00 | 0.00 | 79 | 1015.3 |
| 20260505080003 | 11 | 7 | 8.0 | 17.7 | 0.00 | 0.00 | 0.00 | 79 | 1015.2 |
| 20260505074524 | 11 | 4 | 8.0 | 17.7 | 0.00 | 0.00 | 0.00 | 80 | 1015.2 |
| 20260505073003 | 11 | 355 | 9.7 | 16.1 | 0.00 | 0.00 | 0.00 | 86 | 1015.2 |
| 20260505071503 | 10 | 348 | 4.8 | 12.9 | 0.00 | 0.00 | 0.00 | 92 | 1015.3 |
| 20260505070003 | 8 | 338 | 4.8 | 9.7 | 0.00 | 0.00 | 0.00 | 94 | 1015.3 |
| 20260505064503 | 8 | 343 | 4.8 | 9.7 | 0.00 | 0.00 | 0.00 | 94 | 1015.4 |
| 20260505063002 | 7 | 224 | 3.2 | 6.4 | 0.00 | 0.00 | 0.00 | 94 | 1015.4 |
| 20260505061502 | 7 | 198 | 1.6 | 4.8 | 0.00 | 0.00 | 0.00 | 95 | 1015.4 |
| 20260505060002 | 6 | 199 | 0.0 | 3.2 | 0.00 | 0.00 | 0.00 | 94 | 1015.5 |
| 20260505054523 | 5 | 196 | 0.0 | 3.2 | 0.00 | 0.00 | 0.00 | 94 | 1015.4 |
| 20260505053002 | 5 | 195 | 0.0 | 1.6 | 0.00 | 0.00 | 0.00 | 94 | 1015.3 |
| 20260505051502 | 4 | 0 | 0.0 | 1.6 | 0.00 | 0.00 | 0.00 | 94 | 1015.2 |
| 20260505041502 | 4 | 67 | 0.0 | 1.6 | 0.00 | 0.00 | 0.00 | 93 | 1015.1 |
| 20260505040002 | 5 | 0 | 0.0 | 0.0 | 0.00 | 0.00 | 0.00 | 93 | 1015.0 |
| 20260505034502 | 5 | 309 | 0.0 | 3.2 | 0.00 | 0.00 | 0.00 | 93 | 1014.9 |
| 20260505033002 | 5 | 309 | 3.2 | 4.8 | 0.00 | 0.00 | 0.00 | 93 | 1015.1 |
| 20260505031523 | 5 | 309 | 1.6 | 3.2 | 0.00 | 0.00 | 0.00 | 93 | 1015.0 |
| 20260505030002 | 5 | 309 | 0.0 | 3.2 | 0.00 | 0.00 | 0.00 | 93 | 1014.9 |
| 20260505024502 | 6 | 309 | 1.6 | 3.2 | 0.00 | 0.00 | 0.00 | 93 | 1015.1 |
| 20260505023002 | 6 | 309 | 1.6 | 4.8 | 0.00 | 0.00 | 0.00 | 93 | 1015.2 |
| 20260505021523 | 6 | 309 | 1.6 | 4.8 | 0.00 | 0.00 | 0.00 | 92 | 1015.2 |
| 20260505020002 | 6 | 309 | 1.6 | 3.2 | 0.00 | 0.00 | 0.00 | 92 | 1015.3 |
| 20260505014523 | 6 | 309 | 0.0 | 3.2 | 0.00 | 0.00 | 0.00 | 92 | 1015.4 |
| 20260505013002 | 6 | 309 | 0.0 | 3.2 | 0.00 | 0.00 | 0.00 | 92 | 1015.6 |